Date String (YYYY-MM-DD hh:mm:ss) UTC,Instrument flags,Ambient pressure (hPa),Sample flow (lpm),Bypass flow (lpm),Sample temperature (°C),Ambient temperature (°C),ASC tube jacket temperature (°C),LED temperature (°C),Box temperature (°C),Sample RH (%),Span deviation,Mass concentration (μg/m³),Mass concentration (μg/m³),Mass concentration (μg/m³)
DateTimeUTC,F1_M11,P_M11,Q1_M11,Q2_M11,T1_M11,T2_M11,T3_M11,T4_M11,T5_M11,U1_M11,ZSPAN_M11,X0_M11,X2_M11,X1_M11
2021-10-13 21:00:00,,0816.8,4.98,0.00,25.5,24.7,00.0,34.6,27.3,11.5,0000.0,0003.26,0001.17,0000.77
2021-10-13 21:01:00,,0816.7,5.01,0.00,25.5,24.7,00.0,34.6,27.3,11.5,0000.0,0003.32,0001.19,0000.78
2021-10-13 21:02:00,,0816.6,5.00,0.00,25.5,24.7,00.0,34.6,27.3,11.6,0000.0,0003.69,0001.21,0000.79
2021-10-13 21:03:00,,0816.6,5.00,0.00,25.5,24.7,00.0,34.6,27.3,11.7,0000.0,0004.71,0001.22,0000.79
2021-10-13 21:04:00,,0816.6,5.00,0.00,25.4,24.8,00.0,34.6,27.3,11.6,0000.0,0004.46,0001.25,0000.80
2021-10-13 21:05:00,,0816.6,5.00,0.00,25.4,24.8,00.0,34.6,27.3,11.7,0000.0,0004.35,0001.27,0000.81
2021-10-13 21:06:00,,0816.7,5.00,0.00,25.5,24.7,00.0,34.6,27.3,11.7,0000.0,0004.20,0001.25,0000.81
2021-10-13 21:07:00,,0816.9,5.01,0.00,25.5,24.8,00.0,34.6,27.3,11.7,0000.0,0004.23,0001.25,0000.81
2021-10-13 21:08:00,,0816.8,5.01,0.00,25.5,24.7,00.0,34.6,27.3,11.7,0000.0,0004.69,0001.30,0000.81
2021-10-13 21:09:00,,0816.8,5.00,0.00,25.5,24.7,00.0,34.6,27.3,11.9,0000.0,0006.45,0001.32,0000.82
2021-10-13 21:10:00,,0816.8,5.01,0.00,25.5,24.7,00.0,34.6,27.3,11.7,0000.0,0006.78,0001.25,0000.81
2021-10-13 21:11:00,,0816.6,5.00,0.00,25.5,24.7,00.0,34.6,27.3,11.8,0000.0,0006.71,0001.22,0000.81
2021-10-13 21:12:00,,0816.8,4.99,0.00,25.5,24.7,00.0,34.6,27.4,11.7,0000.0,0006.72,0001.21,0000.79
2021-10-13 21:13:00,,0816.9,5.01,0.00,25.5,24.7,00.0,34.6,27.4,11.7,0000.0,0006.45,0001.22,0000.79
2021-10-13 21:14:00,,0816.8,5.00,0.00,25.6,24.7,00.0,34.6,27.4,11.6,0000.0,0005.47,0001.21,0000.79
2021-10-13 21:15:00,,0816.8,5.00,0.00,25.6,24.7,00.0,34.6,27.4,11.9,0000.0,0005.20,0001.19,0000.79
2021-10-13 21:16:00,,0816.8,4.99,0.00,25.6,24.7,00.0,34.7,27.4,11.9,0000.0,0005.22,0001.20,0000.79
2021-10-13 21:17:00,,0816.9,5.00,0.00,25.6,24.7,00.0,34.7,27.4,11.9,0000.0,0005.20,0001.21,0000.79
2021-10-13 21:18:00,,0816.8,5.01,0.00,25.6,24.7,00.0,34.7,27.4,11.8,0000.0,0005.19,0001.21,0000.80
2021-10-13 21:19:00,,0816.7,5.00,0.00,25.6,24.7,00.0,34.7,27.4,11.7,0000.0,0004.89,0001.21,0000.80
2021-10-13 21:20:00,,0816.9,5.00,0.00,25.6,24.8,00.0,34.7,27.5,11.7,0000.0,0003.80,0001.21,0000.80
2021-10-13 21:21:00,,0816.9,5.00,0.00,25.6,24.8,00.0,34.7,27.5,11.3,0000.0,0003.45,0001.23,0000.81
2021-10-13 21:22:00,,0816.9,5.00,0.00,25.6,24.8,00.0,34.7,27.5,11.4,0000.0,0003.26,0001.22,0000.81
2021-10-13 21:23:00,,0816.9,5.00,0.00,25.6,24.8,00.0,34.7,27.4,11.3,0000.0,0003.24,0001.22,0000.82
2021-10-13 21:24:00,,0816.8,5.00,0.00,25.6,24.8,00.0,34.7,27.4,11.5,0000.0,0003.30,0001.22,0000.83
2021-10-13 21:25:00,,0816.6,5.02,0.00,25.6,24.8,00.0,34.7,27.4,11.4,0000.0,0004.01,0001.24,0000.83
2021-10-13 21:26:00,,0816.5,4.98,0.00,25.6,24.8,00.0,34.7,27.5,11.3,0000.0,0004.06,0001.24,0000.84
2021-10-13 21:27:00,,0816.6,5.02,0.00,25.6,24.8,00.0,34.7,27.5,11.3,0000.0,0004.36,0001.36,0000.86
2021-10-13 21:28:00,,0816.8,4.98,0.00,25.6,24.9,00.0,34.7,27.5,11.4,0000.0,0004.54,0001.43,0000.87
2021-10-13 21:29:00,,0816.8,5.01,0.00,25.6,24.9,00.0,34.7,27.5,11.5,0000.0,0004.64,0001.47,0000.87
2021-10-13 21:30:00,,0816.9,5.00,0.00,25.6,24.9,00.0,34.7,27.5,11.5,0000.0,0004.53,0001.50,0000.87
2021-10-13 21:31:00,,0817.0,5.00,0.00,25.6,24.9,00.0,34.8,27.5,11.4,0000.0,0004.01,0001.50,0000.88
2021-10-13 21:32:00,,0817.0,5.00,0.00,25.6,24.9,00.0,34.8,27.4,11.4,0000.0,0003.67,0001.49,0000.87
2021-10-13 21:33:00,,0816.9,5.01,0.00,25.6,24.9,00.0,34.8,27.5,11.4,0000.0,0003.72,0001.49,0000.86
2021-10-13 21:34:00,,0816.8,5.01,0.00,25.6,24.9,00.0,34.8,27.5,11.5,0000.0,0004.04,0001.50,0000.86
2021-10-13 21:35:00,,0816.9,4.99,0.00,25.6,24.9,00.0,34.8,27.5,11.4,0000.0,0003.94,0001.51,0000.87
2021-10-13 21:36:00,,0817.1,4.99,0.00,25.6,24.9,00.0,34.8,27.5,11.4,0000.0,0003.30,0001.51,0000.87
2021-10-13 21:37:00,,0817.1,5.01,0.00,25.6,24.9,00.0,34.8,27.5,11.5,0000.0,0003.36,0001.55,0000.88
2021-10-13 21:38:00,,0816.9,4.99,0.00,25.7,24.8,00.0,34.8,27.5,11.6,0000.0,0002.97,0001.42,0000.87
2021-10-13 21:39:00,,0816.9,5.01,0.00,25.7,24.8,00.0,34.8,27.5,11.4,0000.0,0002.94,0001.41,0000.86
2021-10-13 21:40:00,,0816.9,5.01,0.00,25.7,24.9,00.0,34.8,27.6,11.4,0000.0,0003.88,0001.42,0000.86
2021-10-13 21:41:00,,0817.0,5.00,0.00,25.7,24.9,00.0,34.8,27.6,11.3,0000.0,0005.41,0001.39,0000.86
2021-10-13 21:42:00,,0817.0,4.99,0.00,25.7,24.9,00.0,34.8,27.6,11.7,0000.0,0005.44,0001.42,0000.88
2021-10-13 21:43:00,,0817.2,5.00,0.00,25.7,24.9,00.0,34.8,27.6,11.6,0000.0,0005.36,0001.39,0000.87
2021-10-13 21:44:00,,0817.3,5.01,0.00,25.7,24.9,00.0,34.8,27.5,11.8,0000.0,0005.36,0001.39,0000.87
2021-10-13 21:45:00,,0817.1,4.99,0.00,25.7,24.9,00.0,34.8,27.5,11.6,0000.0,0004.95,0001.35,0000.87
2021-10-13 21:46:00,,0817.1,5.01,0.00,25.7,24.9,00.0,34.8,27.6,11.4,0000.0,0005.54,0001.35,0000.86
2021-10-13 21:47:00,,0817.1,5.01,0.00,25.7,24.9,00.0,34.8,27.6,11.2,0000.0,0006.15,0001.37,0000.85
2021-10-13 21:48:00,,0817.2,5.00,0.00,25.7,24.9,00.0,34.8,27.6,11.2,0000.0,0006.32,0001.33,0000.83
2021-10-13 21:49:00,,0817.1,5.00,0.00,25.7,24.9,00.0,34.8,27.5,11.3,0000.0,0007.27,0001.33,0000.83
2021-10-13 21:50:00,,0817.2,4.99,0.00,25.7,24.9,00.0,34.8,27.6,11.3,0000.0,0007.79,0001.33,0000.83
2021-10-13 21:51:00,,0817.3,5.00,0.00,25.7,25.0,00.0,34.8,27.6,11.2,0000.0,0007.10,0001.27,0000.82
2021-10-13 21:52:00,,0817.4,5.00,0.00,25.7,25.0,00.0,34.8,27.6,11.3,0000.0,0005.60,0001.27,0000.83
2021-10-13 21:53:00,,0817.4,5.00,0.00,25.7,25.0,00.0,34.8,27.6,11.2,0000.0,0005.62,0001.23,0000.82
2021-10-13 21:54:00,,0817.3,5.01,0.00,25.7,25.0,00.0,34.8,27.6,11.2,0000.0,0005.70,0001.25,0000.82
2021-10-13 21:55:00,,0817.3,5.01,0.00,25.7,25.0,00.0,34.8,27.6,11.2,0000.0,0005.84,0001.32,0000.84
2021-10-13 21:56:00,,0817.2,4.99,0.00,25.7,25.0,00.0,34.9,27.6,11.3,0000.0,0006.19,0001.37,0000.84
2021-10-13 21:57:00,,0817.2,5.01,0.00,25.7,25.0,00.0,34.9,27.6,11.2,0000.0,0006.00,0001.38,0000.84
2021-10-13 21:58:00,,0817.2,5.00,0.00,25.7,25.0,00.0,34.9,27.6,11.2,0000.0,0005.55,0001.40,0000.85
2021-10-13 21:59:00,,0817.3,4.99,0.00,25.7,25.0,00.0,34.9,27.6,11.0,0000.0,0005.14,0001.39,0000.85
